Погода в Петруни

Погода в Петруни : погода сейчас, прогноз погоды и архив. Всё, что Вы хотите узнать о погоде в Петруни!

Поиск расширенной информации на нашем сайте:

Полезная информация: котокафе

Другие новости

Новости СМИ2

Главная страница сайта

Новости сайта

03.07.2017

Напоминаем, что на нашем специализированном сайте Метеоцентр.Азия вы можете получить высокодетализированные автоматические прогнозы погоды по пунктам России, СНГ и мира в авиационном формате (включающие направление и скорость ветра, видимость, явления погоды, количество и форму облачности, нижнюю и верхнюю границу облачности).

Рекомендуем: Лада с пробегом купить авто с пробегом.

Погода в Петруни - сегодня

Время (UTC), дата Ветер
(°,м/с) 
Видим.   Явления Облачность Т
(°С)
Тd
(°С)
f(%) Тe
(°С)
Pmin
(гПа)
dP
(гПа)
Po
(мм)
O2
(г/м3)
Тmin Tmax R s Состояние
почвы
21 20.05.18 280 (З) 27000 м    10/10 420 м 
[St]
-2.1 -3.6 89 -4  1017.2  1.2  757  308           
03 21.05.18 240 (ЮЗ) 30000 м    10/10 420 м 
[St]
-0.6 -3.7 80 -2  1018.8  0.2  758  307  -2.5    0.0  33  мокрый или
старый снег
50-90% 
06 21.05.18 220 (ЮЗ) 28000 м    10/10 540 м 
[Sc]
+1.4 -2.7 74 1019.3  0.5  759  304           
09 21.05.18 200 (Ю) 35000 м    9/9 900 м 
[Sc]
+4.1 -2.1 64 +2  1017.9  -1.3  758  301           
12 21.05.18 190 (Ю) 30000 м    10/0 средняя 
[Ac As]
+4.5 -1.6 65 +3  1016.5  -1.4  757  300           
15 21.05.18 210 (ЮЗ) 5{10}  35000 м  {дождь}  10/0 средняя, верхняя 
[Ac As|Cs]
+3.8 +0.1 77 +1  1012.7  -3.8  754  300    +5.4  0.0     
03 22.05.18 280 (З) 7-12{13}  25000 м  в посл. час дождь  10/10 570 м 
[Sc]
+2.1 -1.6 76 -1  1007.5  750  300  +1.6    25  мокрый или
старый снег
50-90% 
15 22.05.18 290 (З) 5{15}  7000 м  слаб. дождь{ливн. осадки}  10/10 400 м 
[Frnb|Ns]
+1.4 +0.6 94 -1  1021.2  1.8  760  305    +3  0.4     
03 23.05.18 190 (Ю) 30000 м    10/10 270 м 
[St]
+2.6 +0.2 84 +2  1021  -1.5  760  303  +1    0.5  20  мокрый или
старый снег
50-90% 
06 23.05.18 190 (Ю) 35000 м    9/9 1140 м 
[Sc]
+5.6 -0.5 65 +5  1016.9  -4  757  299           
09 23.05.18 200 (Ю) 35000 м    10/0 средняя 
[Ac As]
+6.4 -0.7 60 +5  1011.5  -5.3  753  296           
21 23.05.18 300 (СЗ) 5{11}  29000 м    9/9 800 м 
[Sc]
+0.7 -1.6 85 -2  1006.3  1.8  749  301           
03 24.05.18 280 (З) 7-12{13}  30000 м    10/10 330 м 
[St]
+1.4 -0.3 88 -2  1008  1.2  750  301  +0.2    12  мокрый или
старый снег
50-90% 
15 24.05.18 310 (СЗ) 4{10}  25000 м  {ливн. осадки}  10/10 600 м кучево-дожд. 
[Cb cap]
+0.8 -1.5 85 -2  1015.2  0.9  756  304    +2.7  0.5     
03 25.05.18 310 (СЗ) 25000 м  {снег}  10/10 630 м кучево-дожд. 
[Cb cap]
-2.1 -6.4 72 -5  1018  1.1  758  308  -2.5    0.5  10  мокрый или
старый снег
50-90% 
06 25.05.18 350 (С) 28000 м  {ливн. осадки, снег}  10/10 700 м кучево-дожд. 
[Cb cap]
-1.9 -6.8 69 -4  1020  759  309           
09 25.05.18 290 (З) 35000 м    9/9 930 м кучево-дожд. 
[Cb cap]
-0.5 -6.4 64 -2  1021.4  1.4  760  308           
18 25.05.18 300 (СЗ) 35000 м    9/9 960 м 
[St]
+0.4 -3.6 74 -1  1022.4  -0.1  761  307           
21 25.05.18 280 (З) 30000 м    10/0 средняя 
[Ac und]
+0.1 -1.7 88 -1  1022.1  -0.3  761  307           
03 26.05.18 220 (ЮЗ) 29000 м    10/10 330 м 
[St]
+1.9 +0.3 89 1019.6  -0.9  759  304  -0.1    0.3  мокрый или
старый снег
50-90% 
06 26.05.18 220 (ЮЗ) 30000 м    10/10 400 м 
[St]
+3.2 +0.6 83 +3  1018.3  -1.2  758  302           
09 26.05.18 210 (ЮЗ) 35000 м    9/9 450 м 
[St]
+6 +0.6 68 +5  1016.8  -1.4  757  298           
18 26.05.18 160 (Ю) 30000 м    10/1 600 м кучево-дожд., средняя 
[Cb cap|Ac lent]
+5 +0.3 72 +4  1005.8  -5.7  749  296           
03 27.05.18 230 (ЮЗ) 25000 м  в посл. час морось  10/10 360 м 
[St]
+2 +0.7 91 1001.1  -2.8  745  298  +1.5    мокрый или
старый снег
10-40% 
15 27.05.18 270 (З) 7-12{13}  29000 м  {ливн. осадки}  9/9 630 м кучево-дожд. 
[Cb cap]
+1.8 -0.1 87 -2  999  744  298    +4.3     
Время (UTC), дата Ветер
(°,м/с) 
Видим.   Явления Облачность Т
(°С)
Тd
(°С)
f(%) Тe
(°С)
Pmin
(гПа)
dP
(гПа)
Po
(мм)
O2
(г/м3)
Тmin Tmax R s Состояние
почвы

Для получения пояснительной информации подведите курсор к названию столбца.

ПОГОДА в Петруни - архив

Всё, что Вы хотите узнать о погоде в Петруни - удобно и подробно!

Выберите нужную дату (начиная с 1 января 2015* года) и нажмите кнопку "Найти".
Будут отображены архивные сводки погоды по пункту Петрунь, начиная с указанной даты.


Отображать данные в формате CSV (для использования в таблицах Excel)


Внимание! Наш архив погоды предназначен исключительно для личного некоммерческого использования в познавательных целях. Если Вам необходимы официальные справки о состоянии погоды (для производственных, юридических, коммерческих и т.п. целей), обращайтесь в органы Росгидромета.

*Примечание: данная дата относится к архиву по метеостанциям СССР (Россия, СНГ, Балтия).
Архив по метеостанциям Зарубежной Европы и Азии (кроме Китая) хранится 10 дней, по другим регионам земного шара (Китай, Африка, Америка, Австралия, Океания) - 1 день.

Петрунь - район местоположения метеостанции


Название, широта, долгота, высота метеостанции:
Петрунь 66.5°ш. 60.8°д. 58 м над ур. моря [Российская Федерация]

Дополнительная информация

В oтличие oт бoльшинства пoгoдных сайтoв мы публикуем пoдрoбную метеoинфoрмацию в детальнoм прoфессиoнальнoм фoрмате.

Характеристики температуры и влажнoсти вoздуха измеряются на высoте 2 м в тени вдали oт зданий и деревьев.
Скoрoсть ветра измеряется на высoте 10 м (на урoвне рoста челoвека скoрoсть ветра ниже в 1.5-2 раза). Если метеoстанция нахoдится в гoрoде или в лесу, тo скoрoсть ветра занижена на 2-4 м/с пo сравнению с oткрытым местoм. Скoрoсть ветра над акватoриями крупных рек и oзёр, а также на вершинах хoлмoв на 2-5 м/с выше, чем в oбычных услoвиях.
Атмoсфернoе давление в разных тoчках местнoсти мoжет значительнo oтличаться oт давления на метеoстанции, в зависимoсти oт услoвий рельефа (при пoдъёме на 10 м давление пoнижается примернo на 1 мм рт.ст.).